| time (UTC) | temp F | wind direction | speed MPH | gust MPH | rain 1hr in | rain 24hr in | rain mn in | humidity % | barometer mb |
| 20260831042307 | 59 | 226 | 9.0 | 12.0 | 0.00 | 0.05 | 0.04 | 34 | 1010.7 |
| 20260831040304 | 60 | 237 | 10.0 | 24.0 | 0.00 | 0.05 | 0.04 | 43 | 1010.7 |
| 20260831035306 | 60 | 229 | 17.0 | 33.0 | 0.00 | 0.05 | 0.04 | 43 | 1010.7 |
| 20260831034805 | 60 | 233 | 11.0 | 22.0 | 0.00 | 0.05 | 0.04 | 39 | 1010.6 |
| 20260831032804 | 59 | 222 | 14.0 | 24.0 | 0.01 | 0.05 | 0.04 | 19 | 1010.7 |
| 20260831032306 | 59 | 231 | 11.0 | 21.0 | 0.01 | 0.05 | 0.04 | 12 | 1010.8 |
| 20260831031804 | 58 | 235 | 10.0 | 21.0 | 0.01 | 0.05 | 0.04 | 6 | 1010.9 |
| 20260831031305 | 58 | 226 | 9.0 | 22.0 | 0.01 | 0.05 | 0.04 | 4 | 1011.1 |
| 20260831030305 | 58 | 221 | 10.0 | 26.0 | 0.01 | 0.05 | 0.04 | 7 | 1011.4 |
| 20260831025306 | 58 | 209 | 7.0 | 17.0 | 0.01 | 0.05 | 0.04 | 4 | 1011.1 |
| 20260831024804 | 58 | 219 | 6.0 | 14.0 | 0.01 | 0.05 | 0.04 | 4 | 1011.1 |
| 20260831023305 | 58 | 225 | 10.0 | 21.0 | 0.00 | 0.04 | 0.03 | 4 | 1011.2 |
| 20260831022806 | 58 | 239 | 9.0 | 24.0 | 0.00 | 0.04 | 0.03 | 32 | 1011.1 |
| 20260831022306 | 60 | 220 | 7.0 | 22.0 | 0.00 | 0.04 | 0.03 | 35 | 1011.2 |
| 20260831021806 | 60 | 225 | 9.0 | 22.0 | 0.00 | 0.04 | 0.03 | 43 | 1011.0 |
| 20260831021305 | 60 | 212 | 10.0 | 26.0 | 0.00 | 0.04 | 0.03 | 46 | 1011.1 |
| 20260831015306 | 60 | 223 | 13.0 | 26.0 | 0.00 | 0.04 | 0.03 | 49 | 1011.3 |
| 20260831014305 | 60 | 239 | 12.0 | 23.0 | 0.00 | 0.04 | 0.03 | 45 | 1011.2 |
| 20260831013805 | 60 | 248 | 13.0 | 25.0 | 0.00 | 0.04 | 0.03 | 38 | 1011.3 |
| 20260831012805 | 61 | 208 | 7.0 | 22.0 | 0.00 | 0.04 | 0.03 | 45 | 1011.3 |
| 20260831011305 | 60 | 238 | 9.0 | 20.0 | 0.00 | 0.04 | 0.03 | 26 | 1011.5 |
| 20260831005306 | 60 | 238 | 6.0 | 24.0 | 0.00 | 0.04 | 0.03 | 44 | 1011.6 |
| 20260831004304 | 61 | 227 | 14.0 | 26.0 | 0.00 | 0.04 | 0.03 | 45 | 1011.7 |
| 20260831003805 | 61 | 231 | 14.0 | 25.0 | 0.00 | 0.04 | 0.03 | 39 | 1011.7 |
| 20260831001804 | 60 | 217 | 11.0 | 25.0 | 0.00 | 0.04 | 0.03 | 42 | 1011.9 |
| 20260831000305 | 60 | 248 | 7.0 | 20.0 | 0.00 | 0.04 | 0.03 | 36 | 1012.0 |
| 20260830235805 | 59 | 239 | 6.0 | 14.0 | 0.00 | 0.04 | 0.03 | 30 | 1012.0 |
| 20260830234806 | 59 | 235 | 9.0 | 17.0 | 0.00 | 0.04 | 0.03 | 17 | 1012.1 |
| 20260830234304 | 59 | 236 | 9.0 | 15.0 | 0.00 | 0.04 | 0.03 | 5 | 1012.1 |
| 20260830233806 | 58 | 218 | 6.0 | 20.0 | 0.00 | 0.04 | 0.03 | 4 | 1012.1 |
| 20260830231805 | 59 | 239 | 11.0 | 20.0 | 0.00 | 0.04 | 0.03 | 21 | 1012.3 |
| 20260830230805 | 59 | 227 | 9.0 | 22.0 | 0.00 | 0.04 | 0.03 | 23 | 1012.2 |
| 20260830225306 | 59 | 240 | 6.0 | 17.0 | 0.00 | 0.04 | 0.03 | 24 | 1012.1 |
| 20260830224804 | 59 | 232 | 8.0 | 17.0 | 0.00 | 0.04 | 0.03 | 31 | 1012.0 |
| 20260830224305 | 58 | 233 | 9.0 | 21.0 | 0.00 | 0.04 | 0.03 | 29 | 1012.1 |
| 20260830223307 | 59 | 230 | 9.0 | 18.0 | 0.00 | 0.04 | 0.03 | 34 | 1012.2 |
| 20260830222306 | 59 | 223 | 7.0 | 17.0 | 0.00 | 0.04 | 0.03 | 39 | 1012.2 |
| 20260830221804 | 59 | 234 | 12.0 | 21.0 | 0.00 | 0.04 | 0.03 | 45 | 1012.2 |
| 20260830221305 | 60 | 222 | 10.0 | 24.0 | 0.00 | 0.04 | 0.03 | 46 | 1012.4 |
| 20260830220305 | 59 | 209 | 6.0 | 13.0 | 0.00 | 0.04 | 0.03 | 36 | 1012.5 |
| 20260830215804 | 59 | 241 | 8.0 | 14.0 | 0.00 | 0.04 | 0.03 | 28 | 1012.5 |
| 20260830214807 | 57 | 228 | 5.0 | 20.0 | 0.00 | 0.04 | 0.03 | 11 | 1012.5 |
| 20260830211805 | 57 | 229 | 7.0 | 17.0 | 0.00 | 0.04 | 0.03 | 4 | 1012.7 |
| 20260830211305 | 58 | 216 | 5.0 | 12.0 | 0.00 | 0.04 | 0.03 | 4 | 1012.7 |
| 20260830210805 | 58 | 213 | 8.0 | 16.0 | 0.00 | 0.04 | 0.03 | 4 | 1012.7 |
| 20260830210304 | 59 | 226 | 6.0 | 15.0 | 0.00 | 0.04 | 0.03 | 4 | 1012.7 |
| 20260830205805 | 59 | 231 | 2.0 | 9.0 | 0.00 | 0.04 | 0.03 | 4 | 1012.7 |
| 20260830203806 | 58 | 243 | 4.0 | 14.0 | 0.01 | 0.04 | 0.03 | 4 | 1012.7 |
| 20260830202804 | 58 | 220 | 3.0 | 9.0 | 0.02 | 0.04 | 0.03 | 4 | 1012.7 |
| 20260830201304 | 57 | 236 | 5.0 | 10.0 | 0.02 | 0.04 | 0.03 | 4 | 1012.8 |
| 20260830195306 | 57 | 237 | 4.0 | 12.0 | 0.02 | 0.04 | 0.03 | 4 | 1012.7 |
| 20260830194304 | 57 | 239 | 3.0 | 7.0 | 0.01 | 0.03 | 0.02 | 4 | 1012.5 |
| 20260830193805 | 57 | 233 | 2.0 | 10.0 | 0.01 | 0.03 | 0.02 | 4 | 1012.4 |
| 20260830192307 | 56 | 230 | 3.0 | 8.0 | 0.00 | 0.02 | 0.02 | 4 | 1012.6 |
| 20260830191804 | 56 | 231 | 5.0 | 9.0 | 0.00 | 0.02 | 0.02 | 4 | 1012.5 |
| 20260830190306 | 55 | 248 | 3.0 | 9.0 | 0.00 | 0.02 | 0.02 | 4 | 1012.3 |
| 20260830185805 | 55 | 257 | 3.0 | 10.0 | 0.00 | 0.02 | 0.02 | 4 | 1012.1 |
| 20260830185306 | 55 | 274 | 2.0 | 3.0 | 0.00 | 0.02 | 0.02 | 4 | 1012.0 |
| 20260830184807 | 55 | 256 | 2.0 | 3.0 | 0.00 | 0.02 | 0.02 | 4 | 1012.0 |
| 20260830183804 | 54 | 252 | 1.0 | 3.0 | 0.00 | 0.02 | 0.02 | 4 | 1011.9 |
| 20260830183305 | 54 | 260 | 2.0 | 5.0 | 0.00 | 0.02 | 0.02 | 4 | 1011.8 |
| 20260830180804 | 55 | 244 | 3.0 | 7.0 | 0.00 | 0.02 | 0.02 | 4 | 1011.8 |
| 20260830174304 | 55 | 259 | 2.0 | 8.0 | 0.00 | 0.02 | 0.02 | 4 | 1011.7 |
| 20260830173807 | 55 | 251 | 2.0 | 5.0 | 0.00 | 0.02 | 0.02 | 4 | 1011.7 |
| 20260830172804 | 55 | 241 | 3.0 | 8.0 | 0.00 | 0.02 | 0.02 | 4 | 1011.6 |
| 20260830172306 | 55 | 245 | 3.0 | 10.0 | 0.00 | 0.02 | 0.02 | 4 | 1011.6 |
| 20260830171804 | 55 | 233 | 3.0 | 9.0 | 0.00 | 0.02 | 0.02 | 4 | 1011.6 |
| 20260830171304 | 55 | 225 | 6.0 | 12.0 | 0.00 | 0.02 | 0.02 | 4 | 1011.5 |
| 20260830170304 | 55 | 216 | 6.0 | 13.0 | 0.00 | 0.02 | 0.02 | 4 | 1011.5 |
| 20260830165805 | 56 | 196 | 5.0 | 12.0 | 0.00 | 0.02 | 0.02 | 4 | 1011.5 |
| 20260830164304 | 56 | 232 | 9.0 | 14.0 | 0.00 | 0.02 | 0.02 | 4 | 1010.9 |
| 20260830163804 | 55 | 227 | 4.0 | 8.0 | 0.00 | 0.02 | 0.02 | 4 | 1010.9 |
| 20260830162805 | 56 | 244 | 5.0 | 9.0 | 0.00 | 0.02 | 0.02 | 4 | 1010.8 |
| 20260830162306 | 56 | 227 | 3.0 | 15.0 | 0.00 | 0.02 | 0.02 | 4 | 1010.8 |
| 20260830161804 | 56 | 240 | 3.0 | 6.0 | 0.01 | 0.02 | 0.02 | 4 | 1010.7 |
| 20260830161307 | 56 | 220 | 3.0 | 13.0 | 0.01 | 0.02 | 0.02 | 4 | 1010.7 |
| 20260830153304 | 57 | 223 | 5.0 | 12.0 | 0.01 | 0.02 | 0.02 | 4 | 1010.9 |
| 20260830152804 | 57 | 233 | 5.0 | 10.0 | 0.01 | 0.02 | 0.02 | 4 | 1010.9 |
| 20260830152306 | 57 | 226 | 6.0 | 12.0 | 0.01 | 0.02 | 0.02 | 4 | 1011.0 |
| 20260830151306 | 57 | 227 | 5.0 | 17.0 | 0.00 | 0.02 | 0.01 | 4 | 1010.9 |
| 20260830150806 | 57 | 234 | 7.0 | 15.0 | 0.00 | 0.02 | 0.01 | 4 | 1010.9 |
| 20260830145806 | 57 | 217 | 6.0 | 12.0 | 0.01 | 0.02 | 0.01 | 4 | 1011.1 |
| 20260830143804 | 57 | 212 | 3.0 | 10.0 | 0.01 | 0.02 | 0.01 | 4 | 1011.2 |
| 20260830143304 | 57 | 220 | 3.0 | 12.0 | 0.01 | 0.02 | 0.01 | 4 | 1011.0 |
| 20260830142805 | 57 | 231 | 4.0 | 8.0 | 0.01 | 0.02 | 0.01 | 4 | 1011.0 |
| 20260830142306 | 57 | 238 | 4.0 | 12.0 | 0.01 | 0.02 | 0.01 | 4 | 1011.1 |
| 20260830141304 | 57 | 234 | 6.0 | 10.0 | 0.01 | 0.02 | 0.01 | 4 | 1011.2 |
| 20260830140304 | 57 | 236 | 4.0 | 10.0 | 0.01 | 0.02 | 0.01 | 4 | 1011.2 |
| 20260830135306 | 56 | 243 | 3.0 | 13.0 | 0.00 | 0.01 | 0.00 | 4 | 1011.1 |
| 20260830134806 | 56 | 243 | 3.0 | 8.0 | 0.00 | 0.01 | 0.00 | 4 | 1011.1 |
| 20260830132305 | 56 | 226 | 4.0 | 14.0 | 0.00 | 0.01 | 0.00 | 4 | 1011.2 |
| 20260830131804 | 56 | 233 | 3.0 | 12.0 | 0.00 | 0.01 | 0.00 | 4 | 1011.2 |
| 20260830131305 | 56 | 224 | 7.0 | 16.0 | 0.00 | 0.01 | 0.00 | 4 | 1011.1 |
| 20260830130805 | 56 | 233 | 3.0 | 12.0 | 0.00 | 0.01 | 0.00 | 4 | 1011.2 |
| 20260830130305 | 57 | 213 | 6.0 | 13.0 | 0.00 | 0.01 | 0.00 | 4 | 1011.2 |
| 20260830125306 | 56 | 234 | 3.0 | 9.0 | 0.00 | 0.01 | 0.00 | 4 | 1011.0 |
| 20260830124805 | 57 | 222 | 3.0 | 12.0 | 0.00 | 0.01 | 0.00 | 4 | 1010.9 |
| 20260830124305 | 57 | 218 | 5.0 | 12.0 | 0.00 | 0.01 | 0.00 | 4 | 1010.8 |
| 20260830123805 | 57 | 223 | 4.0 | 12.0 | 0.00 | 0.01 | 0.00 | 4 | 1010.8 |
| 20260830120305 | 56 | 215 | 3.0 | 10.0 | 0.00 | 0.01 | 0.00 | 4 | 1010.8 |
| 20260830110808 | 55 | 241 | 2.0 | 13.0 | 0.00 | 0.01 | 0.01 | 4 | 1010.6 |
| 20260830110304 | 55 | 211 | 4.0 | 12.0 | 0.00 | 0.01 | 0.01 | 4 | 1010.5 |
| 20260830105306 | 55 | 226 | 3.0 | 12.0 | 0.00 | 0.01 | 0.01 | 4 | 1010.5 |
| 20260830104805 | 55 | 220 | 6.0 | 17.0 | 0.00 | 0.01 | 0.01 | 4 | 1010.6 |
| 20260830104306 | 55 | 224 | 4.0 | 12.0 | 0.00 | 0.02 | 0.01 | 4 | 1010.6 |
| 20260830103307 | 56 | 189 | 3.0 | 7.0 | 0.00 | 0.03 | 0.01 | 4 | 1010.6 |
| 20260830102307 | 57 | 216 | 6.0 | 14.0 | 0.00 | 0.05 | 0.01 | 4 | 1010.5 |
| 20260830101805 | 57 | 227 | 7.0 | 20.0 | 0.00 | 0.06 | 0.01 | 4 | 1010.5 |
| 20260830101305 | 57 | 230 | 3.0 | 10.0 | 0.00 | 0.08 | 0.01 | 4 | 1010.4 |
| 20260830095306 | 57 | 213 | 6.0 | 14.0 | 0.00 | 0.14 | 0.01 | 4 | 1010.4 |
| 20260830092805 | 56 | 218 | 7.0 | 18.0 | 0.00 | 0.28 | 0.01 | 4 | 1010.0 |
| 20260830092306 | 56 | 240 | 6.0 | 18.0 | 0.00 | 0.29 | 0.01 | 4 | 1010.0 |
| 20260830091805 | 56 | 227 | 7.0 | 21.0 | 0.00 | 0.30 | 0.01 | 4 | 1010.0 |
| 20260830091304 | 56 | 210 | 8.0 | 21.0 | 0.00 | 0.31 | 0.01 | 4 | 1009.9 |
| 20260830090305 | 57 | 232 | 7.0 | 20.0 | 0.00 | 0.32 | 0.01 | 4 | 1010.0 |
| 20260830085805 | 57 | 234 | 5.0 | 16.0 | 0.00 | 0.33 | 0.01 | 4 | 1010.0 |
| 20260830085307 | 58 | 222 | 5.0 | 12.0 | 0.00 | 0.33 | 0.01 | 4 | 1009.9 |
| 20260830084805 | 58 | 231 | 6.0 | 13.0 | 0.01 | 0.33 | 0.01 | 4 | 1009.8 |
| 20260830083304 | 58 | 217 | 10.0 | 22.0 | 0.01 | 0.35 | 0.01 | 4 | 1009.6 |
| 20260830082306 | 57 | 229 | 7.0 | 14.0 | 0.01 | 0.37 | 0.01 | 4 | 1009.4 |
| 20260830081305 | 57 | 240 | 6.0 | 16.0 | 0.01 | 0.40 | 0.01 | 4 | 1009.4 |
| 20260830080804 | 57 | 222 | 5.0 | 13.0 | 0.01 | 0.41 | 0.01 | 4 | 1009.4 |
| 20260830075306 | 57 | 230 | 5.0 | 12.0 | 0.01 | 0.43 | 0.01 | 4 | 1009.4 |
| 20260830074805 | 57 | 222 | 7.0 | 13.0 | 0.00 | 0.43 | 0.00 | 4 | 1009.5 |
| 20260830072804 | 56 | 227 | 7.0 | 17.0 | 0.00 | 0.45 | 0.00 | 4 | 1009.4 |
| 20260830072306 | 57 | 220 | 7.0 | 20.0 | 0.00 | 0.45 | 0.00 | 4 | 1009.5 |
| 20260830065804 | 57 | 216 | 6.0 | 20.0 | 0.00 | 0.48 | 0.00 | 4 | 1009.5 |
| 20260830064806 | 57 | 219 | 5.0 | 16.0 | 0.00 | 0.49 | 0.00 | 4 | 1009.4 |
| 20260830064305 | 57 | 231 | 4.0 | 9.0 | 0.00 | 0.50 | 0.00 | 4 | 1009.4 |
| 20260830063307 | 57 | 184 | 7.0 | 16.0 | 0.00 | 0.53 | 0.00 | 4 | 1009.4 |
| 20260830061305 | 57 | 212 | 5.0 | 15.0 | 0.00 | 0.61 | 0.00 | 4 | 1009.0 |
| 20260830060805 | 57 | 222 | 5.0 | 10.0 | 0.00 | 0.65 | 0.00 | 4 | 1009.0 |
| 20260830052806 | 57 | 184 | 5.0 | 14.0 | 0.00 | 0.76 | 0.00 | 4 | 1008.8 |
| 20260830051305 | 57 | 239 | 9.0 | 15.0 | 0.00 | 0.80 | 0.00 | 4 | 1008.5 |
| 20260830045804 | 57 | 213 | 6.0 | 16.0 | 0.00 | 0.83 | 0.00 | 4 | 1008.6 |
| 20260830044804 | 58 | 226 | 5.0 | 14.0 | 0.00 | 0.84 | 0.00 | 4 | 1008.7 |
| 20260830042807 | 59 | 226 | 3.0 | 18.0 | 0.00 | 0.87 | 0.00 | 14 | 1008.5 |